[[{"header":{"parameterUnit":"m.s-1","parameterCategory":1,"la1":30.2992,"la2":30.254,"lo1":-89.0895,"lo2":-89.0443,"dy":0.0025,"dx":0.0025,"nx":19,"ny":19,"refTime":"2026-04-28T03:00:00:Z","depth":0,"parameterNumber":2,"parameterNumberName":"U-component_of_WINDS"},"data":[0,0,0,3.4048,3.4053,3.4302,3.4303,3.4625,3.4628,0,0,0,0,0,0,0,0,0,0,0,3.3975,3.3977,3.4047,3.4053,3.4302,3.4303,3.4624,3.4628,0,0,0,0,0,0,0,0,0,0,0,3.3974,3.3977,3.3979,3.4054,3.4301,3.4303,3.4624,3.4435,0,0,0,0,0,0,0,0,0,0,3.4193,3.4127,3.3976,3.3979,3.4056,3.4301,3.4303,3.4426,3.4447,3.4514,0,3.4572,0,3.4605,3.465,3.4651,0,0,0,3.4054,3.4109,3.4175,3.398,3.4058,3.4301,3.419,3.4438,3.4461,3.4541,3.4576,3.4588,3.461,3.4652,3.4653,3.5032,3.5033,0,0,3.404,3.4021,3.4159,3.419,3.415,3.4182,3.4197,3.4452,3.449,3.4577,3.4596,3.4615,3.4654,3.4656,3.503,3.5032,0,0,0,3.4,3.4012,3.4071,3.4177,3.4221,3.4189,3.4207,3.4478,3.4499,3.4599,3.4619,3.4656,3.466,3.5028,3.5031,3.5098,0,0,0,3.3992,3.3988,3.4065,3.4056,3.4217,3.4353,3.4228,3.4481,3.4511,3.4617,3.4656,3.4663,3.5026,3.503,3.5092,3.5134,0,0,0,3.3959,3.3985,3.402,3.4054,3.416,3.4349,3.4384,3.4488,3.4523,3.4651,3.4664,3.5025,3.5029,3.5087,3.5125,3.5227,0,0,0,3.3918,3.408,3.4021,3.4209,3.4158,3.4388,3.4383,3.4556,3.4674,3.4657,3.5027,3.5031,3.5085,3.512,3.5221,3.5308,3.5343,0,0,3.4111,3.4102,3.4214,3.4169,3.4404,3.4352,3.4598,3.4725,3.4756,3.4938,3.4948,3.5094,3.5125,3.5226,3.5545,3.5572,0,0,0,3.4269,3.4349,3.4415,3.4525,3.4624,3.4712,3.4802,3.4849,3.5004,3.4845,3.5159,3.5178,3.5238,3.5281,3.5304,3.5356,3.505,3.5049,3.5049,3.4517,3.4544,3.4731,3.4788,3.4894,3.4984,3.5073,3.5152,3.5152,3.5225,3.528,3.547,3.5519,3.5537,3.5591,3.5329,3.5329,3.5329,3.5329,3.4802,3.4919,3.4911,3.5088,3.5117,3.5268,3.536,3.5354,3.5499,3.5432,3.5486,3.5409,3.5566,3.5614,3.5335,3.5334,3.5333,3.5333,3.5332,3.4967,3.5027,3.5079,3.5238,3.5358,3.5411,3.5549,3.5571,3.5594,3.5647,3.5706,3.5705,3.5707,3.5674,3.5674,3.5675,3.5676,3.5676,3.5677,3.5117,3.5173,3.5286,3.5402,3.5473,3.5571,3.5661,3.5734,3.5819,3.5825,3.5825,3.5817,3.5575,3.5514,3.5687,3.5685,3.5684,3.5683,3.5682,3.5395,3.5335,3.5509,3.558,3.5717,3.5834,3.5859,3.6003,3.6066,3.6134,3.6113,3.5931,3.5924,3.5906,3.5855,3.6107,3.6107,3.6107,3.6107,3.5534,3.5531,3.5713,3.5825,3.5938,3.5978,3.6173,3.6245,3.631,3.6351,3.6318,3.6252,3.6233,3.6238,3.6212,3.6165,3.649,3.649,3.649,3.5706,3.5715,3.5877,3.5937,3.6045,3.6137,3.6322,3.6452,3.6514,3.6506,3.6383,3.6367,3.6262,3.6226,3.6216,3.6176,3.609,0,0]},{"header":{"parameterUnit":"m.s-1","parameterCategory":1,"la1":30.2992,"la2":30.254,"lo1":-89.0895,"lo2":-89.0443,"dy":0.0025,"dx":0.0025,"nx":19,"ny":19,"refTime":"2026-04-28T03:00:00:Z","depth":0,"parameterNumber":3,"parameterNumberName":"V-component_of_WINDS"},"data":[0,0,0,4.8498,4.8501,4.8663,4.8663,4.8871,4.8873,0,0,0,0,0,0,0,0,0,0,0,4.8455,4.8456,4.8497,4.8502,4.8663,4.8663,4.887,4.8873,0,0,0,0,0,0,0,0,0,0,0,4.8454,4.8456,4.8458,4.8502,4.8662,4.8663,4.887,4.8747,0,0,0,0,0,0,0,0,0,0,4.859,4.8556,4.8456,4.8458,4.8503,4.8662,4.8663,4.8741,4.8755,4.88,0,4.8844,0,4.8862,4.8887,4.8888,0,0,0,4.8497,4.8545,4.8584,4.8458,4.8505,4.8662,4.8589,4.8749,4.8764,4.8818,4.8847,4.8855,4.8866,4.8888,4.889,4.917,4.9172,0,0,4.8488,4.8486,4.8573,4.8594,4.8574,4.8584,4.8594,4.8758,4.8788,4.8848,4.8859,4.8869,4.889,4.8892,4.9169,4.9171,0,0,0,4.8466,4.848,4.8515,4.8586,4.8615,4.8588,4.86,4.8781,4.8793,4.8862,4.8871,4.8891,4.8894,4.9167,4.917,4.9243,0,0,0,4.846,4.8467,4.8511,4.8511,4.8612,4.8701,4.862,4.8782,4.88,4.887,4.8891,4.8896,4.9166,4.9169,4.9237,4.9277,0,0,0,4.8443,4.8464,4.849,4.8511,4.858,4.8698,4.872,4.8786,4.8806,4.8888,4.8896,4.9165,4.9168,4.9232,4.9269,4.935,0,0,0,4.8422,4.8552,4.8491,4.8639,4.8579,4.8743,4.8719,4.8841,4.8919,4.8892,4.9166,4.9169,4.9231,4.9264,4.9344,4.9417,4.9448,0,0,4.8584,4.8571,4.8658,4.8608,4.8783,4.8719,4.8903,4.8977,4.8985,4.9107,4.9114,4.9239,4.9269,4.9349,4.9619,4.9643,0,0,0,4.8708,4.8771,4.8818,4.8894,4.8955,4.9008,4.9054,4.9081,4.9185,4.9049,4.929,4.9308,4.9355,4.9389,4.941,4.945,4.9186,4.9185,4.9185,4.8933,4.8939,4.9083,4.9107,4.9181,4.9226,4.9285,4.9328,4.9312,4.9368,4.9404,4.9568,4.9609,4.9624,4.9666,4.9443,4.9444,4.9444,4.9444,4.917,4.9259,4.9233,4.9364,4.9368,4.9476,4.9523,4.9507,4.9606,4.9542,4.9583,4.9512,4.9651,4.9687,4.945,4.9449,4.9448,4.9448,4.9447,4.9317,4.9361,4.9392,4.9502,4.9584,4.9603,4.97,4.9699,4.9699,4.974,4.9777,4.9776,4.9773,4.9758,4.9758,4.9759,4.9759,4.976,4.976,4.9458,4.9491,4.9574,4.9648,4.9696,4.9758,4.9803,4.9849,4.9899,4.989,4.9891,4.9867,4.9664,4.9612,4.9769,4.9767,4.9766,4.9765,4.9765,4.9695,4.9641,4.977,4.9818,4.9903,4.9984,4.9981,5.0074,5.0111,5.0158,5.0125,4.9976,4.9962,4.9946,4.9903,5.0125,5.0125,5.0125,5.0125,4.9819,4.9812,4.9943,5.0019,5.0093,5.0104,5.0244,5.0279,5.0307,5.0329,5.0297,5.024,5.0223,5.0219,5.0197,5.0157,5.0439,5.0439,5.044,4.9964,4.9964,5.0087,5.0115,5.0181,5.0237,5.0369,5.0454,5.0473,5.0452,5.0346,5.0333,5.0242,5.0212,5.0189,5.0155,5.0082,0,0]}]]